AF6GL Weather Reports


Display with metric or nautical units.
time (UTC)temp
F
wind
direction
speed
MPH
gust
MPH
rain 1hr
in
rain 24hr
in
rain mn
in
humidity
%
barometer
mb
20180918195907 78 276 7.0 12.0 0.00 0.00 0.00 56 1008.8
20180918194906 78 248 7.0 12.0 0.00 0.00 0.00 55 1008.9
20180918193905 77 267 7.0 14.0 0.00 0.00 0.00 55 1009.0
20180918192904 78 302 7.0 13.0 0.00 0.00 0.00 58 1009.1
20180918191906 78 297 6.0 12.0 0.00 0.00 0.00 57 1009.1
20180918190903 77 288 7.0 10.0 0.00 0.00 0.00 59 1009.2
20180918185900 77 288 5.0 10.0 0.00 0.00 0.00 61 1009.2
20180918184859 77 269 6.0 10.0 0.00 0.00 0.00 63 1009.4
20180918183859 77 293 5.0 11.0 0.00 0.00 0.00 61 1009.5
20180918182856 77 300 5.0 10.0 0.00 0.00 0.00 61 1009.6
20180918181854 77 284 4.0 9.0 0.00 0.00 0.00 57 1009.7
20180918180854 76 321 3.0 9.0 0.00 0.00 0.00 54 1009.9
20180918175852 76 290 4.0 7.0 0.00 0.00 0.00 55 1010.0
20180918174850 75 290 3.0 8.0 0.00 0.00 0.00 55 1010.0
20180918173852 75 283 2.0 5.0 0.00 0.00 0.00 56 1010.1
20180918172849 74 304 2.0 6.0 0.00 0.00 0.00 57 1010.4
20180918171853 73 299 2.0 6.0 0.00 0.00 0.00 55 1010.4
20180918170849 72 289 2.0 4.0 0.00 0.00 0.00 57 1010.5
20180918165849 71 314 2.0 4.0 0.00 0.00 0.00 59 1010.5
20180918164847 71 295 1.0 3.0 0.00 0.00 0.00 61 1010.6
20180918163847 70 266 1.0 4.0 0.00 0.00 0.00 64 1010.6
20180918162849 69 283 0.0 1.0 0.00 0.00 0.00 66 1010.7
20180918161846 67 269 0.0 2.0 0.00 0.00 0.00 68 1010.7
20180918160845 67 300 0.0 1.0 0.00 0.00 0.00 72 1010.8
20180918155846 65 318 0.0 1.0 0.00 0.00 0.00 71 1010.7
20180918154845 63 17 0.0 2.0 0.00 0.00 0.00 71 1010.7
20180918153845 62 31 0.0 2.0 0.00 0.00 0.00 72 1010.7
20180918152844 61 65 0.0 2.0 0.00 0.00 0.00 74 1010.8
20180918151850 59 52 0.0 3.0 0.00 0.00 0.00 75 1010.7
20180918150843 57 56 2.0 4.0 0.00 0.00 0.00 78 1010.7
20180918145844 57 71 1.0 3.0 0.00 0.00 0.00 81 1010.6
20180918144844 55 56 1.0 4.0 0.00 0.00 0.00 81 1010.8
20180918143842 55 70 1.0 3.0 0.00 0.00 0.00 83 1010.7
20180918142841 54 136 1.0 3.0 0.00 0.00 0.00 84 1010.6
20180918141842 53 58 1.0 4.0 0.00 0.00 0.00 85 1010.5
20180918140841 53 57 2.0 6.0 0.00 0.00 0.00 86 1010.2
20180918135842 53 56 2.0 6.0 0.00 0.00 0.00 86 1010.1
20180918134841 53 49 2.0 6.0 0.00 0.00 0.00 85 1010.2
20180918133845 53 68 2.0 5.0 0.00 0.00 0.00 85 1010.1
20180918132917 53 73 1.0 4.0 0.00 0.00 0.00 85 1010.1
20180918093822 58 27 2.0 4.0 0.00 0.00 0.00 81 1009.8
20180918092823 58 42 1.0 4.0 0.00 0.00 0.00 81 1009.9
20180918091823 58 318 2.0 5.0 0.00 0.00 0.00 80 1009.9
20180918090824 59 49 1.0 3.0 0.00 0.00 0.00 80 1009.9
20180918085824 59 39 1.0 4.0 0.00 0.00 0.00 80 1010.0
20180918084820 59 34 2.0 4.0 0.00 0.00 0.00 80 1010.0
20180918083821 59 45 1.0 4.0 0.00 0.00 0.00 80 1010.0
20180918082824 60 31 2.0 5.0 0.00 0.00 0.00 79 1010.1
20180918081824 60 34 2.0 5.0 0.00 0.00 0.00 79 1010.1
20180918080820 60 55 2.0 5.0 0.00 0.00 0.00 79 1010.1
20180918075819 60 50 2.0 5.0 0.00 0.00 0.00 80 1010.0
20180918074818 60 48 2.0 4.0 0.00 0.00 0.00 80 1010.1
20180918073821 60 51 1.0 4.0 0.00 0.00 0.00 80 1010.0
20180918072818 60 94 1.0 3.0 0.00 0.00 0.00 80 1010.1
20180918071819 60 50 0.0 3.0 0.00 0.00 0.00 80 1010.2
20180918070817 60 85 1.0 4.0 0.00 0.00 0.00 81 1010.2
20180918065819 60 60 1.0 3.0 0.00 0.00 0.00 83 1010.1
20180918064815 60 79 0.0 2.0 0.00 0.00 0.00 84 1010.0
20180918063814 61 80 0.0 0.0 0.00 0.00 0.00 84 1010.1
20180918062814 61 80 0.0 0.0 0.00 0.00 0.00 84 1010.0
20180918061820 61 77 1.0 3.0 0.00 0.00 0.00 83 1010.0
20180918060813 62 63 1.0 3.0 0.00 0.00 0.00 85 1010.0
20180918055813 62 69 0.0 0.0 0.00 0.00 0.00 87 1010.0
20180918054810 62 64 0.0 0.0 0.00 0.00 0.00 88 1010.0
20180918053810 63 134 0.0 0.0 0.00 0.00 0.00 88 1010.0
20180918052811 63 134 0.0 0.0 0.00 0.00 0.00 88 1010.0
20180918051812 63 138 0.0 0.0 0.00 0.00 0.00 87 1009.9
20180918050810 64 139 0.0 0.0 0.00 0.00 0.00 87 1009.9
20180918045809 64 139 0.0 0.0 0.00 0.00 0.00 86 1009.8
20180918044809 65 139 0.0 0.0 0.00 0.00 0.00 86 1009.7
20180918043808 65 139 0.0 0.0 0.00 0.00 0.00 86 1009.6
20180918042807 66 137 0.0 3.0 0.00 0.00 0.00 86 1009.5
20180918041809 66 163 0.0 1.0 0.00 0.00 0.00 85 1009.4
20180918040808 67 179 1.0 3.0 0.00 0.00 0.00 85 1009.4
20180918035809 67 183 1.0 4.0 0.00 0.00 0.00 84 1009.2
20180918034813 67 202 0.0 2.0 0.00 0.00 0.00 84 1009.1
20180918033908 67 133 1.0 4.0 0.00 0.00 0.00 84 1009.0
20180918032809 68 168 1.0 3.0 0.00 0.00 0.00 83 1009.0
20180918031811 68 134 1.0 3.0 0.00 0.00 0.00 82 1008.7
20180918031411 68 191 1.0 4.0 0.00 0.00 0.00 81 1008.6
20180918021806 71 192 1.0 4.0 0.00 0.00 0.00 72 1008.3
20180918020803 71 217 2.0 6.0 0.00 0.00 0.00 70 1008.3
20180918015808 72 278 2.0 4.0 0.00 0.00 0.00 66 1008.2
20180918014804 74 211 2.0 6.0 0.00 0.00 0.00 63 1008.1
20180918013803 75 143 2.0 7.0 0.00 0.00 0.00 61 1008.1
20180918012801 75 233 2.0 5.0 0.00 0.00 0.00 61 1008.2
20180918011804 75 232 2.0 7.0 0.00 0.00 0.00 61 1008.2
20180918010803 75 278 4.0 6.0 0.00 0.00 0.00 61 1008.2
20180918005802 76 255 3.0 10.0 0.00 0.00 0.00 64 1008.2
20180918004806 76 259 4.0 9.0 0.00 0.00 0.00 61 1008.2
20180918003802 76 228 4.0 8.0 0.00 0.00 0.00 60 1008.2
20180918002803 77 284 4.0 9.0 0.00 0.00 0.00 56 1008.1
20180918001806 77 262 4.0 8.0 0.00 0.00 0.00 56 1008.1
20180918000804 76 261 5.0 10.0 0.00 0.00 0.00 56 1008.2
20180917235802 77 262 6.0 11.0 0.00 0.00 0.00 61 1008.2
20180917234803 78 296 5.0 9.0 0.00 0.00 0.00 55 1008.3
20180917233801 78 238 5.0 10.0 0.00 0.00 0.00 54 1008.4
20180917232759 79 171 4.0 7.0 0.00 0.00 0.00 51 1008.3
20180917231759 78 264 6.0 10.0 0.00 0.00 0.00 52 1008.3
20180917230757 78 259 6.0 11.0 0.00 0.00 0.00 51 1008.4
20180917225803 78 275 5.0 11.0 0.00 0.00 0.00 51 1008.5
20180917224109 79 269 6.0 13.0 0.00 0.00 0.00 47 1008.7
20180917222946 79 293 7.0 13.0 0.00 0.00 0.00 48 1008.7
20180917220759 79 269 7.0 12.0 0.00 0.00 0.00 48 1008.8
20180917215757 79 277 7.0 12.0 0.00 0.00 0.00 50 1008.8
20180917214756 79 276 6.0 13.0 0.00 0.00 0.00 52 1008.9
20180917213757 79 255 6.0 12.0 0.00 0.00 0.00 55 1009.0
20180917212757 80 200 7.0 12.0 0.00 0.00 0.00 51 1009.0
20180917211753 80 276 6.0 11.0 0.00 0.00 0.00 52 1009.0
20180917210755 80 261 6.0 13.0 0.00 0.00 0.00 53 1009.2
20180917205754 80 296 5.0 13.0 0.00 0.00 0.00 57 1009.3
20180917204754 79 271 6.0 12.0 0.00 0.00 0.00 56 1009.3
20180917203755 80 286 5.0 10.0 0.00 0.00 0.00 59 1009.3
20180917202755 80 271 6.0 13.0 0.00 0.00 0.00 59 1009.5
20180917201752 79 316 7.0 11.0 0.00 0.00 0.00 55 1009.7
20180917200751 80 240 5.0 11.0 0.00 0.00 0.00 56 1009.8